Location: Roc des P�zouls
(43.9667°N, 3.5500°E)
Time: 23:15:54
(UTC+00:00)

SL-27 R/B - Pass Details

Date: 14 November 2019
Orbit: 420 x 473 km, 74.7° (Epoch: 14 December)

Event Time Altitude Azimuth Distance (km) Brightness Sun altitude
Exits shadow 04:57:19 22° 204° (SSW) 984 3.9 -18.3°
Maximum altitude 04:59:20 80° 289° (WNW) 432 2.1 -17.9°
Drops below altitude 10° 05:02:39 10° 17° (NNE) 1,513 5.2 -17.3°
Sets 05:04:43 0° 19° (NNE) 2,384 6.2 -17.0°
